Flag for Netherlands Weather past 2 weeks in Rotterdam, Netherlands

Now
59 °F

Clear.


Feels Like: 58 °F
Forecast: 62 / 73 °F
Wind: 7 mph from Northeast

Location: Rotterdam Zestienhoven Airport

Current Time: Aug 30, 2015 at 4:30:02 AM

Latest Report: Aug 30, 2015 at 3:55 AM


Visibility: 6 mi

Pressure: 30.07 "Hg

Humidity: 94%

Dew point: 57 °F

Location of RotterdamLocation

Historic Weather in Rotterdam — Graph

°F

Rotterdam temperature yesterday

Maximum temperature yesterday: 75 °F (at 4:55 PM)
Minimum temperature yesterday: 52 °F (at 6:25 AM)
Average temperature yesterday: 63 °F

Past Weeks' High & Low Weather Summary

 TemperatureHumidityPressure
High81 °F (Aug 21, 4:55 PM)100% (Aug 15, 3:25 AM)30.21 "Hg (Aug 15, 3:25 AM)
Low52 °F (Aug 29, 6:25 AM)39% (Aug 22, 4:55 PM)29.42 "Hg (Aug 24, 5:25 PM)
Average64 °F80%29.92 "Hg
* Reported Aug 15 2:25 AM — Aug 30 2:55 AM, Rotterdam, Weather by CustomWeather, © 2015

Note: Actual official high and low records may vary slightly from our data, if they occured in-between our weather recording intervals... More about our weather records

Advertising

Rotterdam weather history for previous 24 hours

 ConditionsComfort  
Time TempWeatherWind HumidityBarometerVisibility
2:55 AM
Sun, Aug 30
59 °FLight rain. Passing clouds.6 mph94%30.09 "HgN/A
2:25 AM59 °FPassing clouds.6 mph94%30.07 "HgN/A
1:55 AM59 °FPassing clouds.6 mph94%30.09 "HgN/A
1:25 AM59 °FClear.6 mph94%30.09 "HgN/A
12:55 AM59 °FPassing clouds.8 mph94%30.09 "HgN/A
12:25 AM61 °FSprinkles. Passing clouds.15 mph88%30.09 "HgN/A
11:55 PM
Sat, Aug 29
61 °FLots of rain. Passing clouds.7 mph88%30.12 "Hg4 mi
10:55 PM63 °FClear.8 mph77%30.09 "HgN/A
10:25 PM64 °FClear.7 mph68%30.09 "HgN/A
9:55 PM63 °FClear.5 mph77%30.09 "HgN/A
9:25 PM63 °FClear.3 mph73%30.09 "HgN/A
8:55 PM63 °FClear.3 mph77%30.09 "HgN/A
8:25 PM64 °FMild.5 mph73%30.09 "HgN/A
7:55 PM66 °FClear.5 mph68%30.09 "HgN/A
7:25 PM68 °FClear.7 mph60%30.12 "HgN/A
6:55 PM68 °FClear.7 mph64%30.12 "HgN/A
6:25 PM70 °FClear.7 mph60%30.12 "HgN/A
5:55 PM72 °FClear.7 mph53%30.12 "HgN/A
5:25 PM73 °FMild.2 mph44%30.12 "HgN/A
4:55 PM75 °FMild.3 mph44%30.12 "HgN/A
4:25 PM73 °FClear.5 mph50%30.12 "HgN/A
3:55 PM73 °FMild.3 mph53%30.15 "HgN/A
3:25 PM73 °FMild.2 mph50%30.15 "HgN/A
2:55 PM73 °FClear.3 mph47%30.15 "HgN/A
2:25 PM72 °FPassing clouds.3 mph50%30.15 "HgN/A
1:55 PM72 °FClear.6 mph50%30.15 "HgN/A
1:25 PM72 °FMild.8 mph53%30.15 "HgN/A
12:55 PM70 °FClear.9 mph53%30.18 "HgN/A
11:55 AM70 °FClear.7 mph50%30.18 "HgN/A
11:25 AM68 °FClear.7 mph53%30.18 "HgN/A
10:55 AM68 °FClear.8 mph56%30.18 "HgN/A
10:25 AM66 °FClear.7 mph60%30.18 "HgN/A
9:25 AM63 °FClear.6 mph77%30.18 "HgN/A
8:55 AM61 °FClear.6 mph83%30.18 "HgN/A
7:55 AM55 °FClear.3 mph100%30.15 "HgN/A
7:25 AM54 °FClear.3 mph100%30.15 "HgN/A
6:55 AM54 °FCool.3 mph100%30.15 "HgN/A
6:25 AM52 °FClear.6 mph100%30.15 "HgN/A
5:55 AM54 °FClear.3 mph100%30.15 "HgN/A
4:55 AM54 °FCool.5 mph100%30.15 "HgN/A
4:25 AM54 °FClear.5 mph94%30.15 "HgN/A
Weather by CustomWeather, © 2015

See weather overviewHow to use our weather pages